Temperature
12 12 12 12 13 13 13 13 13 13 13 14 14 14 14 14 14 14 14 14 14 14 14 14 14 14 14 14 14 14 14 14 14 14 14 14 14 14 14 15 15 15 15
12 12 12 12 12 13 13 13 13 13 13 13 13 13 13 13 13 14 14 14 14 14 14 14 14 14 14 14 14 14 14 13 13 13 13 14 14 14 14 14 14 14 14
11 12 12 12 12 12 12 12 13 13 13 13 13 13 13 13 13 13 13 13 13 13 13 13 13 13 13 13 13 13 13 13 13 13 13 13 13 14 14 14 14 14 14
11 11 11 11 11 12 12 12 12 12 12 12 12 13 13 13 13 13 13 13 13 13 13 13 13 13 13 13 13 13 13 13 13 13 13 13 13 13 13 13 13 13 13
11 11 11 11 11 11 11 11 12 12 12 12 12 12 12 12 12 12 12 13 13 13 13 13 13 13 13 13 13 13 13 13 13 13 13 13 13 13 13 13 13 13 13
11 11 11 11 11 11 11 11 11 12 12 12 12 12 12 12 12 12 12 12 12 12 12 13 13 13 13 13 13 13 13 13 13 13 13 13 13 13 13 13 13 13 13
10 10 10 10 11 10 11 11 11 11 11 11 11 11 11 12 12 12 12 12 12 12 12 12 12 13 13 13 13 13 13 14 13 13 13 13 13 13 13 13 13 13 12
10 10 10 10 10 10 11 11 10 10 11 11 11 11 11 11 11 12 12 11 11 12 12 12 12 12 13 13 13 13 13 13 13 13 13 13 13 13 12 12 12 12 12
10 10 10 10 10 10 10 10 10 10 10 10 10 10 10 11 11 11 11 11 11 11 11 12 12 12 12 12 12 12 13 13 13 13 13 13 13 13 13 12 12 12 12
10 10 10 10 10 10 10 10 10 10 10 9 10 10 10 10 10 11 11 11 11 11 11 11 12 12 12 12 12 12 12 12 12 12 12 12 12 12 12 12 12 12 12
11 10 10 10 10 10 10 10 9 9 9 9 9 9 9 10 10 10 10 10 10 11 11 11 11 12 12 12 12 12 12 12 12 12 12 12 12 12 12 12 12 12 12
11 11 10 10 10 10 10 10 9 9 9 9 9 9 9 9 10 10 10 10 10 10 11 11 11 11 12 12 12 12 12 12 11 11 11 11 11 11 11 11 11 11 11
11 11 10 10 10 10 10 9 9 9 9 9 9 9 9 9 9 10 10 10 10 10 11 11 11 11 11 11 12 12 11 11 11 11 11 11 11 10 11 11 10 11 11
11 10 10 10 10 10 10 9 9 9 9 9 9 9 9 9 9 9 9 10 10 10 10 10 11 11 11 11 11 11 11 11 11 10 10 10 10 10 10 10 10 10 10
11 11 10 10 10 10 10 10 9 9 9 9 9 8 9 9 9 10 10 10 10 10 10 10 10 10 10 10 10 11 10 10 10 10 10 10 10 10 10 9 9 9 9
11 11 11 10 10 10 10 9 9 9 9 9 9 9 9 9 10 10 10 10 10 10 10 10 10 10 10 10 10 10 10 10 10 10 9 9 9 9 9 9 9 9 9
12 11 11 11 10 10 10 10 9 9 9 9 9 9 10 10 10 10 10 10 10 10 10 10 10 10 10 10 9 9 9 9 9 9 9 9 9 9 9 8 8 8 8
12 12 11 11 11 10 10 10 10 9 9 9 9 10 10 10 10 10 10 10 10 10 10 10 10 10 9 9 9 9 9 9 9 9 9 9 9 8 8 8 8 8 8
12 12 12 11 11 11 10 10 10 10 10 9 9 9 10 10 10 10 10 10 10 10 10 10 10 9 9 9 9 9 9 9 9 8 8 8 8 8 8 8 8 8 7
13 13 12 12 11 11 11 11 10 10 10 10 9 9 10 10 9 10 10 10 10 10 10 10 10 10 10 9 9 9 8 8 8 8 8 8 8 8 8 7 7 7 7
13 13 13 12 12 11 11 11 11 11 10 10 10 10 10 10 10 10 10 10 10 10 10 10 10 10 10 10 9 9 8 8 8 8 8 8 8 7 7 7 7 7 7
13 13 13 12 12 12 12 11 11 11 11 10 10 10 11 10 10 10 10 11 11 11 11 11 10 10 10 10 9 9 8 8 8 8 8 8 7 7 7 7 7 7 6
13 13 13 13 12 12 12 12 12 11 11 11 11 11 11 10 10 10 10 11 11 11 11 11 11 11 10 10 10 10 9 8 8 8 8 8 7 7 7 7 7 7 6
13 13 13 13 13 13 12 12 12 12 12 12 11 11 11 11 11 11 11 11 11 11 11 11 11 11 11 11 11 11 10 10 10 9 9 8 7 7 7 7 7 6 6
13 13 13 13 13 13 13 12 12 12 12 12 12 12 12 11 11 11 11 11 11 11 11 11 11 11 11 11 11 11 11 11 10 10 10 9 8 7 7 7 7 7 6
13 13 13 13 13 13 13 13 13 12 12 12 12 12 12 12 12 12 12 12 12 12 12 12 12 11 11 11 11 11 11 11 11 10 10 9 8 8 8 7 7 7 6
Wind_Speed
12 11 11 10 10 10 10 10 9 8 8 7 6 5 4 3 1 0 1 3 4 3 4 5 7 7 6 5 5 5 5 4 3 2 2 3 3 3 3 4 5 6 7
12 12 12 12 12 12 11 10 10 9 9 8 8 7 7 6 5 3 2 1 2 3 3 4 4 4 4 4 4 5 4 4 4 4 3 3 3 2 2 2 3 3 3
12 12 12 13 13 12 11 11 11 10 10 9 9 8 8 7 6 5 4 2 1 1 2 3 4 4 4 4 4 4 4 4 4 3 3 2 2 2 2 2 2 2 3
11 11 12 12 12 11 11 11 11 11 10 10 9 9 8 8 7 6 5 4 3 2 2 1 2 3 3 4 4 4 4 4 4 3 3 3 2 2 2 2 3 3 2
11 11 11 11 11 11 11 11 11 11 11 10 10 10 9 8 9 8 5 5 5 4 4 4 4 5 5 2 1 3 4 4 4 4 4 3 3 2 2 1 3 3 4
10 11 10 11 11 11 11 11 11 11 11 11 11 11 11 9 11 11 7 5 5 5 5 5 4 4 5 4 4 4 2 2 4 4 4 4 3 3 2 2 2 3 3
10 10 10 11 11 11 11 11 11 11 11 11 11 10 11 12 12 11 9 5 6 6 5 4 4 4 3 4 6 7 7 7 4 2 4 4 4 3 2 3 3 3 4
9 10 10 10 10 10 11 11 10 10 10 10 10 10 10 12 14 11 7 6 6 6 5 5 3 3 3 3 5 6 7 7 5 4 6 5 5 3 2 3 5 6 5
9 9 9 9 10 10 10 10 9 9 9 9 9 10 10 11 15 13 8 5 5 6 6 6 4 4 4 2 5 7 8 8 11 13 13 10 10 9 4 2 4 4 4
7 8 8 8 9 9 10 9 8 7 8 8 9 9 10 11 14 14 11 5 5 5 5 6 8 7 5 3 4 6 7 7 7 8 8 8 8 8 6 4 2 2 4
5 6 7 7 8 8 8 8 8 8 8 8 8 8 9 10 12 14 13 6 5 5 5 5 6 8 7 5 3 5 6 6 6 6 6 6 6 7 7 8 7 5 4
4 5 6 6 7 7 8 8 8 8 8 8 8 8 8 9 10 11 12 11 8 6 5 5 6 8 9 7 6 8 6 4 5 5 6 6 6 6 7 8 10 10 9
3 4 4 5 5 6 7 7 7 8 7 7 7 7 7 7 8 9 9 10 9 6 6 8 8 7 7 9 10 6 4 4 5 6 6 6 6 6 6 6 8 10 11
2 2 2 3 4 5 5 6 6 7 7 7 7 7 7 7 9 8 6 5 5 6 6 8 8 9 8 8 6 5 5 5 5 6 6 6 5 5 5 4 5 5 7
2 2 1 2 2 3 4 4 5 6 6 6 6 7 7 7 9 10 8 6 6 5 4 5 6 6 6 6 6 6 5 5 5 5 5 5 5 5 4 4 4 4 5
2 1 1 0 1 2 2 2 2 1 3 4 6 7 6 7 7 8 9 9 9 6 4 6 6 6 6 6 5 5 5 5 5 5 5 5 4 4 5 4 4 5 5
3 2 2 2 1 1 2 3 2 3 4 3 4 6 7 7 7 7 6 6 7 5 5 6 6 6 5 5 5 5 5 5 4 5 5 5 4 4 4 4 4 4 4
4 3 3 3 2 2 2 2 2 3 2 2 4 4 4 5 6 6 5 2 4 5 5 5 5 5 4 4 4 4 4 4 4 4 4 4 4 4 4 4 4 4 4
4 4 4 3 3 3 2 2 2 1 2 1 1 3 3 2 3 3 4 3 4 4 4 4 4 4 4 4 4 3 4 4 4 3 4 4 3 3 3 3 4 3 2
4 4 4 4 4 3 3 3 2 2 1 1 1 1 1 1 0 2 2 2 2 2 2 2 2 2 2 2 2 2 3 3 3 3 3 3 3 2 3 3 3 3 3
5 5 8 6 5 4 4 4 3 3 3 2 1 1 1 2 1 1 0 0 0 1 1 1 2 1 1 1 1 2 2 2 2 2 3 2 2 3 3 3 3 3 3
5 5 6 6 6 6 5 5 5 4 4 4 3 3 6 5 3 2 2 2 2 2 2 2 2 2 2 2 2 2 3 3 3 3 3 3 2 3 3 3 3 3 4
6 6 6 6 6 6 6 6 6 6 6 5 5 4 5 5 5 4 4 4 4 4 4 4 4 4 4 4 3 3 3 3 2 2 3 3 3 3 3 4 4 4 4
7 7 7 7 6 7 7 7 7 7 7 6 6 6 6 6 6 6 6 5 5 6 6 6 6 6 6 5 5 5 4 3 3 4 4 3 4 3 4 4 4 5 5
7 7 7 7 7 7 7 8 7 7 7 7 7 7 7 7 7 7 7 7 7 7 8 9 8 8 9 9 8 7 5 5 5 4 5 5 5 4 4 5 5 5 5
8 8 7 7 7 7 7 7 8 8 8 7 7 7 7 7 7 7 8 8 8 8 9 10 11 11 10 10 10 9 8 9 8 8 7 6 6 6 6 5 6 6 6
Wind_Direction
20 22 25 26 29 35 36 34 34 37 41 45 48 54 57 60 75 127 215 204 204 202 206 207 207 198 191 191 196 200 205 206 217 211 196 200 209 219 202 225 228 222 206
23 26 29 30 35 36 34 33 35 38 41 47 51 54 53 50 48 47 42 168 193 194 198 190 182 180 183 184 187 193 198 197 207 211 195 197 204 207 210 209 211 212 208
26 29 32 33 34 34 32 32 34 36 38 41 44 46 46 44 44 43 46 54 77 170 192 188 176 175 180 181 186 190 193 194 202 201 182 163 189 182 179 184 182 178 182
28 30 33 34 34 35 35 36 38 37 38 38 41 42 41 41 36 34 41 48 62 71 90 136 151 162 171 177 184 187 181 180 181 181 172 161 165 166 187 174 157 142 134
32 33 32 34 36 38 39 39 41 39 38 38 41 43 41 39 32 24 32 47 60 67 70 75 74 69 60 77 172 184 178 174 170 174 165 159 157 158 152 157 147 134 102
35 35 33 33 34 36 37 38 39 38 37 38 39 40 40 37 32 27 19 49 60 71 70 70 84 84 86 91 74 66 57 175 172 165 158 146 131 124 125 148 147 155 123
37 36 33 34 34 34 35 36 36 38 39 38 37 36 38 34 30 31 22 46 59 59 65 75 78 78 98 115 118 122 90 60 37 117 126 116 120 119 133 127 115 101 90
38 36 32 31 34 34 35 35 32 35 38 37 35 35 35 33 26 26 14 51 64 61 57 58 70 85 80 108 122 111 97 80 65 86 95 89 84 96 97 98 110 108 100
38 34 33 33 33 31 32 31 30 31 35 37 36 33 32 31 25 19 5 60 64 63 59 54 46 84 75 47 126 117 107 93 72 71 70 80 69 48 23 128 144 149 121
40 38 37 36 32 30 29 26 29 32 32 36 40 36 34 32 27 21 8 53 64 66 63 63 51 49 55 15 131 128 120 115 116 114 107 115 98 79 34 49 56 103 117
49 47 43 40 38 33 29 28 29 34 35 36 42 40 38 33 31 29 20 35 54 64 64 59 55 49 52 42 56 112 117 125 121 111 101 93 84 74 63 56 50 50 78
69 61 52 43 38 36 35 32 33 32 36 36 37 38 33 35 34 33 35 34 26 61 57 57 63 60 63 57 73 89 101 120 116 113 104 95 89 81 74 71 71 69 67
94 76 63 56 46 38 36 35 35 34 33 33 32 30 28 28 35 41 46 45 34 56 66 64 65 63 84 81 78 85 109 111 111 108 100 91 84 86 89 86 83 80 73
123 97 77 58 51 47 37 33 33 30 28 28 27 24 24 30 23 14 22 51 76 78 85 90 89 73 78 84 91 83 80 82 94 100 102 99 96 93 87 90 96 101 91
161 143 112 65 40 33 44 35 30 43 29 13 16 16 17 22 19 9 12 27 35 46 70 87 82 83 82 81 79 76 79 91 95 99 105 109 107 101 89 79 83 100 102
199 185 183 174 6 359 12 74 126 38 51 28 18 8 44 39 22 28 36 38 31 12 63 81 76 73 74 77 83 83 79 79 86 97 103 106 109 108 103 96 96 100 103
223 210 211 235 263 307 342 356 40 155 171 111 53 36 38 37 35 34 33 42 33 18 76 78 76 74 74 74 76 80 82 82 87 94 99 103 105 107 106 104 104 106 108
224 208 221 228 254 278 310 333 352 6 40 102 117 89 66 54 42 22 338 301 72 65 71 76 77 77 79 83 85 88 93 95 95 99 102 104 108 113 114 111 106 109 118
217 216 216 227 237 254 268 283 301 333 6 34 83 135 144 161 140 33 340 50 70 75 77 78 79 83 85 87 89 93 97 99 101 106 106 108 114 120 119 118 110 100 121
217 210 230 230 231 236 243 255 265 278 303 328 341 28 154 224 34 71 60 56 72 88 94 97 90 85 93 98 105 113 116 116 121 120 116 118 116 122 130 134 136 143 136
224 205 204 232 236 238 243 250 254 256 266 278 276 144 277 274 330 18 53 116 110 138 152 149 144 148 137 140 157 159 154 141 138 138 138 139 141 144 146 150 151 149 143
229 228 223 229 232 234 241 245 249 251 253 254 248 191 188 237 248 241 225 211 203 208 207 207 202 188 197 209 214 207 195 182 176 178 170 163 164 167 172 176 178 174 171
234 235 234 234 235 229 237 244 242 244 246 246 243 233 214 227 235 233 228 216 208 206 204 212 216 207 207 215 222 230 222 201 197 204 199 191 195 194 198 196 195 196 191
233 236 240 240 238 240 240 242 241 241 243 243 241 237 234 230 232 229 223 214 208 208 207 211 219 217 212 213 216 220 223 213 210 213 223 220 212 209 207 203 205 202 199
231 235 238 242 242 241 243 243 243 242 240 241 242 240 236 232 229 225 218 212 210 211 210 211 214 217 218 216 217 218 201 208 229 239 222 224 222 219 220 214 211 209 210
227 233 238 241 244 246 247 247 246 246 245 244 243 242 239 235 230 224 216 210 209 210 211 212 215 215 216 219 220 211 200 210 220 232 239 232 223 221 220 221 218 218 218
Height
1519 1517 1515 1513 1512 1510 1508 1507 1506 1506 1505 1505 1505 1506 1506 1506 1507 1507 1508 1509 1510 1511 1512 1513 1515 1517 1519 1521 1523 1525 1527 1529 1531 1532 1533 1535 1536 1537 1538 1539 1540 1541 1543
1523 1521 1518 1516 1514 1512 1511 1510 1509 1508 1507 1507 1507 1507 1507 1507 1507 1506 1506 1507 1508 1509 1510 1511 1513 1514 1516 1518 1520 1522 1524 1526 1528 1530 1531 1532 1533 1534 1535 1536 1537 1538 1539
1528 1525 1522 1520 1517 1516 1514 1513 1511 1510 1510 1509 1509 1508 1508 1507 1507 1507 1506 1506 1507 1508 1509 1510 1512 1513 1515 1517 1519 1520 1522 1524 1525 1527 1529 1530 1531 1532 1533 1534 1534 1535 1536
1531 1529 1526 1523 1521 1520 1518 1516 1514 1513 1512 1511 1511 1510 1509 1508 1508 1507 1507 1506 1506 1507 1508 1509 1511 1512 1514 1516 1518 1519 1521 1523 1524 1526 1527 1528 1529 1530 1531 1532 1533 1534 1535
1535 1533 1530 1528 1525 1523 1521 1519 1517 1515 1514 1513 1512 1511 1510 1510 1509 1508 1508 1508 1507 1508 1508 1509 1510 1512 1513 1515 1517 1519 1520 1522 1524 1525 1526 1527 1528 1529 1530 1530 1532 1532 1533
1539 1536 1533 1531 1529 1526 1524 1522 1520 1518 1516 1515 1514 1513 1512 1511 1510 1509 1509 1509 1509 1509 1509 1510 1511 1512 1514 1515 1516 1518 1520 1522 1524 1525 1526 1527 1528 1528 1529 1529 1530 1532 1532
1542 1539 1537 1534 1532 1529 1527 1525 1523 1521 1519 1517 1516 1515 1513 1512 1511 1511 1510 1510 1509 1509 1510 1511 1512 1513 1515 1516 1518 1519 1520 1522 1524 1525 1526 1527 1527 1528 1528 1529 1530 1531 1531
1545 1542 1540 1538 1535 1533 1530 1528 1526 1524 1522 1520 1518 1517 1515 1514 1513 1512 1511 1511 1510 1510 1511 1512 1513 1514 1515 1517 1519 1520 1521 1522 1524 1525 1526 1527 1527 1527 1528 1529 1530 1530 1531
1547 1545 1543 1541 1538 1536 1533 1531 1528 1527 1525 1523 1521 1519 1518 1516 1514 1513 1512 1512 1512 1512 1512 1513 1514 1515 1516 1517 1519 1520 1521 1523 1524 1525 1526 1527 1527 1527 1528 1530 1530 1531 1532
1550 1548 1546 1543 1541 1539 1536 1534 1531 1529 1527 1526 1524 1522 1520 1518 1516 1515 1513 1513 1513 1513 1513 1514 1514 1515 1517 1518 1520 1522 1523 1524 1525 1526 1527 1528 1528 1529 1529 1530 1531 1532 1533
1551 1550 1548 1546 1544 1541 1539 1536 1534 1532 1530 1528 1526 1525 1523 1520 1518 1517 1515 1515 1514 1515 1515 1515 1516 1517 1518 1519 1521 1522 1523 1525 1526 1527 1528 1529 1529 1530 1530 1531 1531 1532 1533
1553 1552 1550 1548 1546 1544 1541 1539 1537 1535 1533 1531 1529 1527 1525 1523 1521 1519 1518 1517 1516 1516 1516 1517 1517 1518 1519 1521 1522 1523 1524 1526 1527 1528 1529 1530 1531 1531 1532 1532 1532 1533 1533
1555 1554 1552 1551 1548 1546 1544 1542 1540 1537 1535 1534 1532 1530 1528 1526 1524 1522 1521 1520 1519 1519 1518 1519 1519 1520 1521 1522 1523 1524 1526 1527 1528 1529 1530 1531 1532 1532 1533 1533 1534 1534 1534
1557 1556 1554 1553 1551 1549 1546 1544 1542 1540 1538 1536 1534 1533 1531 1529 1527 1525 1524 1523 1522 1522 1521 1521 1522 1522 1523 1524 1525 1526 1527 1528 1529 1530 1531 1532 1533 1533 1534 1535 1535 1536 1536
1558 1557 1556 1554 1553 1551 1549 1546 1544 1542 1540 1538 1536 1535 1533 1531 1530 1528 1526 1526 1525 1524 1524 1525 1525 1525 1526 1526 1527 1528 1529 1530 1530 1531 1532 1533 1534 1534 1535 1535 1536 1537 1537
1559 1558 1557 1555 1554 1552 1551 1549 1546 1544 1542 1540 1538 1536 1535 1533 1532 1530 1529 1528 1527 1527 1527 1527 1527 1527 1528 1528 1529 1530 1530 1531 1532 1532 1533 1534 1535 1536 1536 1536 1537 1537 1538
1558 1558 1557 1556 1555 1553 1552 1551 1549 1546 1544 1542 1540 1538 1537 1535 1534 1533 1532 1531 1530 1530 1530 1530 1529 1530 1530 1530 1531 1531 1532 1532 1533 1533 1534 1535 1536 1536 1537 1537 1538 1538 1538
1557 1556 1556 1555 1554 1554 1552 1551 1550 1548 1547 1544 1542 1540 1538 1537 1535 1534 1533 1533 1533 1532 1532 1532 1531 1531 1532 1532 1532 1533 1533 1533 1534 1535 1535 1536 1536 1537 1537 1538 1538 1538 1539
1556 1555 1555 1554 1553 1553 1552 1551 1550 1548 1547 1545 1543 1541 1540 1538 1537 1536 1535 1535 1534 1534 1533 1533 1533 1533 1533 1533 1533 1533 1534 1534 1535 1535 1536 1536 1537 1537 1538 1538 1538 1538 1539
1553 1553 1553 1553 1553 1552 1551 1551 1550 1549 1548 1546 1545 1543 1541 1539 1539 1537 1536 1535 1535 1534 1534 1534 1533 1533 1533 1533 1533 1534 1534 1535 1535 1535 1536 1536 1536 1537 1537 1538 1538 1539 1539
1551 1551 1550 1550 1551 1551 1550 1550 1549 1548 1547 1546 1545 1543 1541 1540 1539 1538 1537 1536 1535 1535 1534 1534 1533 1533 1533 1533 1533 1534 1534 1534 1535 1535 1535 1535 1536 1536 1537 1537 1538 1538 1538
1548 1548 1548 1548 1548 1548 1548 1548 1547 1546 1546 1545 1544 1542 1541 1539 1539 1538 1537 1535 1535 1534 1533 1533 1533 1532 1532 1532 1532 1533 1533 1533 1534 1534 1534 1535 1535 1535 1536 1536 1537 1537 1538
1544 1545 1545 1545 1545 1545 1544 1545 1544 1544 1543 1543 1542 1541 1540 1539 1538 1537 1536 1535 1534 1533 1532 1532 1532 1531 1531 1531 1531 1531 1532 1532 1532 1533 1533 1534 1534 1535 1535 1536 1536 1536 1537
1540 1540 1540 1541 1541 1541 1541 1541 1541 1541 1540 1540 1539 1539 1538 1537 1536 1535 1534 1533 1532 1532 1531 1531 1530 1530 1530 1530 1530 1530 1530 1530 1530 1531 1531 1532 1533 1533 1534 1534 1534 1535 1536
1535 1536 1536 1536 1536 1536 1537 1537 1537 1537 1537 1536 1536 1536 1535 1534 1534 1533 1532 1531 1531 1530 1529 1529 1529 1528 1528 1528 1528 1528 1528 1528 1529 1529 1529 1530 1531 1531 1532 1532 1533 1533 1534
1531 1531 1531 1531 1532 1532 1532 1532 1532 1533 1532 1532 1532 1532 1531 1531 1530 1530 1529 1529 1528 1528 1527 1527 1526 1526 1526 1526 1526 1526 1526 1526 1527 1527 1527 1528 1528 1529 1530 1530 1531 1531 1531